Lid_Strength_Index
-0 -0 -1 -2 -2 -2 -2 -2 -1 -1 -1 -1 -1 -0 0 1 1 3 6 4 4 3 3 6 7 6 6 8 8 7 11 13 12 11 9 6 7 5 4 5 7 6 6 7 7
1 1 -0 -1 -2 -2 -1 -2 -1 -1 -1 -1 -1 -0 -0 0 3 6 3 1 0 1 4 8 9 8 8 9 9 10 12 11 7 7 8 7 6 6 6 6 6 6 7 8 7
1 1 1 -1 -2 -2 -1 -2 -1 -1 -1 -1 -1 -0 -0 0 6 6 2 0 -2 -0 2 6 8 9 10 8 9 10 12 8 7 6 6 7 7 5 6 8 6 6 4 7 7
1 1 1 0 -1 -2 -2 -2 -2 -1 -1 -1 -1 -1 -0 2 9 5 1 1 -1 -1 2 4 8 11 11 11 8 10 8 8 7 6 7 7 6 7 6 6 4 4 3 5 7
2 1 1 1 0 -1 -2 -2 -2 -1 -1 -1 -1 -1 2 5 6 1 2 4 1 1 3 5 8 9 12 10 10 11 9 8 8 7 7 6 7 7 6 4 4 5 6 6 6
2 2 1 1 1 -0 -2 -2 -2 -1 -1 -1 -1 -1 4 9 1 2 3 3 5 3 3 4 7 7 9 10 11 9 10 10 9 9 8 8 8 7 6 5 5 6 6 5 5
2 2 1 1 0 0 -0 -1 -2 -2 -1 -2 -2 0 5 6 1 1 2 3 3 5 7 4 5 8 8 10 9 10 12 10 9 10 10 8 10 10 7 6 6 6 6 5 5
2 2 1 0 0 0 -0 -1 -2 -1 -2 -2 -1 1 7 2 1 2 2 3 3 4 6 7 5 6 9 8 9 12 12 13 10 9 10 10 13 7 6 7 8 7 6 5 5
2 2 1 1 0 1 0 -1 -1 -1 -1 -1 2 4 8 2 4 4 4 5 5 6 7 7 7 8 8 11 13 12 15 14 12 9 10 11 12 8 7 7 7 7 6 6 5
3 1 -0 -1 0 0 -0 -1 -1 1 2 2 3 7 5 6 6 7 6 5 7 8 10 10 9 11 11 11 16 14 15 14 15 12 12 12 12 9 9 10 8 8 7 7 7
3 2 1 -1 -0 -0 1 2 5 6 5 7 7 7 6 4 6 7 7 7 7 9 12 10 13 14 12 11 11 12 13 14 13 12 13 13 12 10 8 9 10 9 9 9 8
3 3 2 1 -0 0 2 5 8 7 11 7 6 6 5 4 8 6 4 9 9 11 10 12 14 11 11 11 12 13 14 14 12 12 13 13 13 11 10 10 10 10 10 9 8
3 3 3 2 0 2 4 6 4 6 11 10 8 8 8 7 9 8 6 8 10 11 12 14 12 11 12 13 14 13 14 13 14 12 14 15 16 14 11 11 11 10 10 9 9
4 4 3 2 2 3 6 5 4 6 13 12 11 9 9 8 10 7 7 8 11 12 11 12 11 12 14 14 13 16 12 13 14 15 18 14 20 15 13 12 12 12 10 10 10
4 4 3 2 4 6 6 4 4 7 20 12 11 8 9 10 9 9 6 8 11 12 12 13 13 14 15 14 13 15 12 13 14 15 16 17 19 16 13 14 13 11 11 10 10
4 4 4 5 5 5 4 4 6 14 20 14 11 12 10 9 10 9 9 6 8 11 12 12 10 12 13 13 13 12 14 14 15 15 20 17 17 16 15 13 12 11 11 11 13
4 4 5 6 9 5 4 6 14 18 12 13 13 11 10 11 10 10 11 11 12 14 14 12 13 12 11 14 12 14 16 20 21 21 21 16 17 15 13 13 13 12 12 13 13
4 5 6 6 5 5 6 11 20 16 14 11 11 10 12 10 10 11 12 12 10 11 13 15 17 12 11 13 15 15 15 19 22 22 19 17 19 16 12 12 12 13 14 14 14
5 7 8 7 6 6 10 18 17 15 11 11 11 14 13 12 11 11 11 12 11 10 14 15 15 12 13 13 13 15 17 13 17 17 18 17 16 13 12 13 15 14 14 15 15
7 10 10 7 6 7 13 17 15 10 9 10 14 12 14 12 12 11 11 9 10 9 9 12 16 12 13 14 14 14 12 17 16 21 21 18 17 16 13 14 15 16 14 15 15
9 12 10 7 6 11 17 16 15 9 8 10 11 12 12 12 12 12 12 9 8 9 9 10 13 14 14 15 15 15 15 15 14 15 19 20 17 13 14 13 13 14 14 15 15
11 14 9 7 14 14 16 14 10 10 8 9 9 11 12 11 12 12 12 10 8 8 11 10 12 15 14 14 14 14 14 14 17 18 16 16 16 14 15 15 13 14 14 14 14
11 12 10 9 17 16 13 13 10 11 11 11 11 9 9 12 14 11 11 8 8 9 11 10 13 17 15 15 15 15 15 14 13 14 17 19 16 13 13 14 13 14 14 14 15
11 13 13 11 11 13 14 15 14 9 10 9 10 9 11 13 11 13 11 9 8 8 8 9 12 15 17 15 15 16 15 14 15 17 17 17 14 11 14 14 13 13 13 14 15
8 10 8 13 14 12 11 13 13 13 10 9 11 11 13 16 14 14 13 11 10 8 11 12 16 15 15 14 13 14 14 15 16 15 18 16 16 14 13 13 12 12 13 14 15
7 10 12 10 13 11 11 13 13 12 11 13 12 11 11 14 13 14 14 13 13 11 12 11 16 16 16 13 13 15 14 14 14 14 15 15 16 12 11 11 12 12 12 13 15
5 6 7 8 11 12 12 11 11 9 10 9 10 10 13 11 9 9 9 9 10 12 13 13 14 16 19 14 16 17 15 14 14 16 17 18 16 15 14 14 15 15 14 14 15